When you browse on this site, cookies collect data to enhance your experience and personalize the content and advertising you see.
Visit our Privacy Policy to learn more. By continuing to use the site, you agree to this use of cookies and data.
  • In Switzerland
  • List of Countries
  • For 7 days
  • Water Temperature
  • Weather Map
  • Weather Widgets
  • user-avatar
    Login

    Hourly Weather Shondrovo

    Today, 22 August, Thursday

    Time Temperature Precipitation Wind Pressure Humidity
    00:00 +20°C° 0 mm 2 mps 746 mmHg 85%
    01:00 +20°C° 0 mm 2 mps 746 mmHg 87%
    02:00 +20°C° 0 mm 2 mps 746 mmHg 88%
    03:00 +19°C° 0 mm 2 mps 746 mmHg 90%
    04:00 +19°C° 0 mm 2 mps 746 mmHg 90%
    05:00 +19°C° 0 mm 2 mps 745 mmHg 90%
    06:00 +19°C° 0 mm 2 mps 745 mmHg 91%
    07:00 +21°C° 0 mm 2 mps 745 mmHg 85%
    08:00 +23°C° 0 mm 2 mps 745 mmHg 79%
    09:00 +25°C° 0 mm 2 mps 746 mmHg 74%
    10:00 +26°C° 0 mm 2 mps 745 mmHg 70%
    11:00 +27°C° 0 mm 2 mps 745 mmHg 65%
    12:00 +28°C° 0 mm 2 mps 745 mmHg 61%
    13:00 +28°C° 0.3 mm 2 mps 745 mmHg 62%
    14:00 +28°C° 0.3 mm 3 mps 745 mmHg 63%
    15:00 +28°C° 0.3 mm 3 mps 746 mmHg 64%
    16:00 +26°C° 0.6 mm 4 mps 746 mmHg 71%
    17:00 +25°C° 0.6 mm 4 mps 746 mmHg 77%
    18:00 +22°C° 0.6 mm 5 mps 746 mmHg 83%
    19:00 +21°C° 0 mm 5 mps 746 mmHg 84%
    20:00 +20°C° 0 mm 4 mps 746 mmHg 84%
    21:00 +19°C° 0 mm 4 mps 747 mmHg 85%
    22:00 +18°C° 0 mm 4 mps 747 mmHg 86%
    23:00 +17°C° 0 mm 4 mps 747 mmHg 86%

    Tomorrow, 23 August, Friday

    Time Temperature Precipitation Wind Pressure Humidity
    00:00 +15°C° 0 mm 4 mps 748 mmHg 87%
    01:00 +15°C° 0 mm 4 mps 748 mmHg 88%
    02:00 +14°C° 0 mm 3 mps 748 mmHg 90%
    03:00 +13°C° 0 mm 3 mps 749 mmHg 91%
    04:00 +13°C° 0 mm 3 mps 749 mmHg 92%
    05:00 +13°C° 0 mm 3 mps 749 mmHg 92%
    06:00 +13°C° 0 mm 3 mps 749 mmHg 93%
    07:00 +14°C° 0 mm 3 mps 749 mmHg 88%
    08:00 +15°C° 0 mm 4 mps 750 mmHg 83%
    09:00 +17°C° 0 mm 4 mps 750 mmHg 79%
    10:00 +18°C° 0 mm 4 mps 750 mmHg 73%
    11:00 +20°C° 0 mm 4 mps 750 mmHg 68%
    12:00 +21°C° 0 mm 4 mps 750 mmHg 62%
    13:00 +21°C° 0 mm 4 mps 750 mmHg 60%
    14:00 +21°C° 0 mm 3 mps 750 mmHg 59%
    15:00 +22°C° 0 mm 3 mps 750 mmHg 57%
    16:00 +21°C° 0 mm 3 mps 749 mmHg 61%
    17:00 +21°C° 0 mm 3 mps 749 mmHg 65%
    18:00 +20°C° 0 mm 2 mps 749 mmHg 69%
    19:00 +19°C° 0 mm 2 mps 749 mmHg 73%
    20:00 +17°C° 0 mm 2 mps 749 mmHg 76%
    21:00 +16°C° 0 mm 2 mps 750 mmHg 79%
    22:00 +15°C° 0 mm 2 mps 750 mmHg 80%
    23:00 +15°C° 0 mm 1 mps 749 mmHg 80%

    Day after tomorrow, 24 August, Saturday

    Time Temperature Precipitation Wind Pressure Humidity
    00:00 +14°C° 0 mm 1 mps 749 mmHg 81%
    01:00 +14°C° 0 mm 1 mps 750 mmHg 82%
    02:00 +14°C° 0 mm 1 mps 750 mmHg 82%
    03:00 +13°C° 0 mm 1 mps 750 mmHg 83%
    04:00 +13°C° 0 mm 1 mps 750 mmHg 83%
    05:00 +13°C° 0 mm 1 mps 750 mmHg 84%
    06:00 +13°C° 0 mm 1 mps 750 mmHg 84%
    07:00 +15°C° 0 mm 1 mps 750 mmHg 78%
    08:00 +18°C° 0 mm 1 mps 750 mmHg 73%
    09:00 +19°C° 0 mm 1 mps 750 mmHg 67%
    10:00 +21°C° 0 mm 1 mps 750 mmHg 62%
    11:00 +22°C° 0 mm 1 mps 750 mmHg 57%
    12:00 +23°C° 0 mm 1 mps 750 mmHg 52%
    13:00 +24°C° 0 mm 1 mps 750 mmHg 50%
    14:00 +24°C° 0 mm 1 mps 749 mmHg 48%
    15:00 +23°C° 0 mm 0 mps 749 mmHg 46%
    16:00 +22°C° 0 mm 0 mps 749 mmHg 49%
    17:00 +22°C° 0 mm 0 mps 748 mmHg 53%
    18:00 +21°C° 0 mm 0 mps 748 mmHg 57%
    19:00 +20°C° 0 mm 0 mps 748 mmHg 60%
    20:00 +18°C° 0 mm 0 mps 748 mmHg 64%
    21:00 +16°C° 0 mm 0 mps 748 mmHg 67%
    22:00 +16°C° 0 mm 1 mps 748 mmHg 69%
    23:00 +16°C° 0 mm 1 mps 748 mmHg 71%

    25 August, Sunday

    Time Temperature Precipitation Wind Pressure Humidity
    00:00 +15°C° 0 mm 1 mps 748 mmHg 74%
    01:00 +15°C° 0 mm 1 mps 748 mmHg 75%
    02:00 +15°C° 0 mm 1 mps 748 mmHg 77%
    03:00 +14°C° 0 mm 1 mps 748 mmHg 78%
    04:00 +14°C° 0 mm 2 mps 747 mmHg 80%
    05:00 +14°C° 0 mm 2 mps 747 mmHg 83%
    06:00 +14°C° 0 mm 2 mps 747 mmHg 85%
    07:00 +15°C° 0 mm 2 mps 747 mmHg 81%
    08:00 +17°C° 0 mm 2 mps 747 mmHg 76%
    09:00 +19°C° 0 mm 2 mps 747 mmHg 72%
    10:00 +20°C° 0 mm 2 mps 747 mmHg 67%
    11:00 +21°C° 0 mm 3 mps 747 mmHg 62%
    12:00 +22°C° 0 mm 3 mps 747 mmHg 58%
    13:00 +24°C° 0 mm 3 mps 747 mmHg 56%
    14:00 +24°C° 0 mm 3 mps 747 mmHg 55%
    15:00 +25°C° 0 mm 3 mps 746 mmHg 54%
    16:00 +24°C° 0.1 mm 3 mps 746 mmHg 60%
    17:00 +22°C° 0.1 mm 3 mps 746 mmHg 66%
    18:00 +21°C° 0.1 mm 3 mps 746 mmHg 72%
    19:00 +20°C° 0 mm 3 mps 746 mmHg 78%
    20:00 +18°C° 0 mm 3 mps 747 mmHg 83%
    21:00 +17°C° 0 mm 3 mps 747 mmHg 89%
    22:00 +16°C° 0 mm 2 mps 747 mmHg 90%
    23:00 +16°C° 0 mm 2 mps 747 mmHg 91%

    26 August, Monday

    Time Temperature Precipitation Wind Pressure Humidity
    00:00 +15°C° 0 mm 2 mps 748 mmHg 92%
    01:00 +14°C° 0 mm 2 mps 748 mmHg 92%
    02:00 +13°C° 0 mm 3 mps 748 mmHg 92%
    03:00 +12°C° 0 mm 3 mps 749 mmHg 92%
    04:00 +12°C° 0 mm 3 mps 749 mmHg 93%
    05:00 +11°C° 0 mm 3 mps 749 mmHg 94%
    06:00 +11°C° 0 mm 3 mps 749 mmHg 95%
    07:00 +12°C° 0 mm 3 mps 750 mmHg 90%
    08:00 +13°C° 0 mm 3 mps 750 mmHg 85%
    09:00 +16°C° 0 mm 3 mps 751 mmHg 80%
    10:00 +17°C° 0 mm 3 mps 751 mmHg 74%
    11:00 +18°C° 0 mm 3 mps 751 mmHg 67%
    12:00 +19°C° 0 mm 4 mps 751 mmHg 61%
    13:00 +20°C° 0 mm 3 mps 751 mmHg 59%
    14:00 +20°C° 0 mm 3 mps 751 mmHg 57%
    15:00 +20°C° 0 mm 3 mps 751 mmHg 55%
    16:00 +20°C° 0 mm 2 mps 751 mmHg 59%
    17:00 +19°C° 0 mm 2 mps 751 mmHg 63%
    18:00 +19°C° 0 mm 2 mps 751 mmHg 67%
    19:00 +17°C° 0 mm 2 mps 751 mmHg 71%
    20:00 +16°C° 0 mm 2 mps 751 mmHg 75%
    21:00 +14°C° 0 mm 2 mps 751 mmHg 80%
    22:00 +14°C° 0 mm 2 mps 751 mmHg 81%
    23:00 +13°C° 0 mm 2 mps 751 mmHg 81%

    27 August, Tuesday

    Time Temperature Precipitation Wind Pressure Humidity
    00:00 +13°C° 0 mm 1 mps 751 mmHg 82%
    01:00 +12°C° 0 mm 1 mps 751 mmHg 82%
    02:00 +12°C° 0 mm 1 mps 751 mmHg 83%
    03:00 +12°C° 0 mm 1 mps 751 mmHg 83%
    04:00 +11°C° 0 mm 1 mps 751 mmHg 83%
    05:00 +11°C° 0 mm 1 mps 751 mmHg 84%
    06:00 +11°C° 0 mm 1 mps 751 mmHg 85%
    07:00 +13°C° 0 mm 2 mps 751 mmHg 80%
    08:00 +15°C° 0 mm 2 mps 751 mmHg 75%
    09:00 +17°C° 0 mm 2 mps 751 mmHg 70%
    10:00 +18°C° 0 mm 2 mps 751 mmHg 65%
    11:00 +19°C° 0 mm 2 mps 751 mmHg 61%
    12:00 +20°C° 0 mm 2 mps 750 mmHg 57%
    13:00 +21°C° 0 mm 2 mps 750 mmHg 55%
    14:00 +21°C° 0 mm 2 mps 750 mmHg 53%
    15:00 +22°C° 0 mm 3 mps 749 mmHg 52%
    16:00 +21°C° 0 mm 2 mps 749 mmHg 56%
    17:00 +21°C° 0 mm 2 mps 749 mmHg 60%
    18:00 +20°C° 0 mm 2 mps 748 mmHg 64%
    19:00 +19°C° 0 mm 2 mps 748 mmHg 67%
    20:00 +17°C° 0 mm 2 mps 748 mmHg 71%
    21:00 +16°C° 0 mm 2 mps 748 mmHg 74%
    22:00 +16°C° 0 mm 2 mps 748 mmHg 75%
    23:00 +15°C° 0 mm 2 mps 748 mmHg 76%
    Show more